This demonstration page uses our WeatherBlox Daily Observations layout. Learn more.

Left ArrowRight Arrow

Hourly Observations for May 9, 2021

Temp ( °F °C ) Dew Point ( °F °C ) Humidity (%) Winds ( mph kmh ) Pressure ( in mb ) Visibility ( mi km ) Precip ( " mm )
12:15 am 00:15 Cloudy with Rain 46 7.8 41 5 83 83 ENE 8 13 30.07 1018 10 16 0.01 0.25
12:35 am 00:35 Cloudy with Light Rain 46 7.5 42 5.5 87 87 NE 9 15 30.07 1018 10 16 0.01 0.25
12:55 am 00:55 Cloudy with Light Rain 45 7.2 42 5.4 88 88 ENE 9 15 30.05 1018 10 16 0.01 0.25
1:15 am 01:15 Cloudy with Light Rain 45 7.1 42 5.5 90 90 ENE 8 13 30.05 1018 10 16 0.01 0.25
1:35 am 01:35 Cloudy with Light Rain 44 6.9 42 5.5 91 91 ENE 8 13 30.04 1017 10 16 0.03 0.76
1:55 am 01:55 Cloudy with Drizzle 44 6.7 42 5.5 92 92 ENE 10 17 30.03 1017 10 16 0.03 0.76
2:15 am 02:15 Cloudy with Light Rain 44 6.7 43 6 95 95 ENE 9 15 30.02 1017 7 11 0.01 0.25
2:35 am 02:35 Cloudy with Light Rain 44 6.6 42 5.8 95 95 ENE 13 20 29.99 1016 10 16 0.02 0.51
2:55 am 02:55 Cloudy with Light Rain 44 6.6 43 6 96 96 E 15 24 29.97 1015 10 16 0.04 1.02
3:15 am 03:15 Cloudy with Light Rain 44 6.5 42 5.6 94 94 E 13 20 29.95 1014 10 16 0.01 0.25
3:40 am 03:40 Cloudy with Light Rain 43 6.3 42 5.6 95 95 E 12 19 29.93 1014 10 16 0.02 0.51
3:55 am 03:55 Cloudy with Drizzle 43 6.2 42 5.5 95 95 E 13 20 29.91 1013 10 16 0.02 0.51
4:15 am 04:15 Cloudy with Light Rain 43 6.3 42 5.5 95 95 E 14 22 29.90 1013 10 16 0.00 0.00
4:35 am 04:35 Cloudy with Light Rain 43 6.3 42 5.5 95 95 ENE 13 20 29.90 1013 10 16 0.00 0.00
4:55 am 04:55 Cloudy with Light Rain 43 6.2 42 5.5 95 95 E 15 24 29.87 1012 4 6 0.05 1.27
5:15 am 05:15 Cloudy with Light Rain 43 6.3 42 5.5 95 95 E 16 26 29.86 1011 10 16 0.01 0.25
5:35 am 05:35 Cloudy with Rain 43 6.2 42 5.5 95 95 E 15 24 29.85 1011 7 11 0.07 1.78
5:55 am 05:55 Cloudy 43 6.2 42 5.5 95 95 E 14 22 29.85 1011 5 8 0.12 3.05
6:15 am 06:15 Cloudy with Light Rain 43 6.1 42 5.5 96 96 E 20 31 29.83 1010 5 8 0.05 1.27
6:35 am 06:35 Cloudy with Thunderstorms 43 6.1 42 5.4 95 95 E 20 31 29.82 1010 10 16 0.09 2.29
6:55 am 06:55 Cloudy with Thunderstorms 43 6.2 42 5.5 95 95 E 16 26 29.83 1010 5 8 0.18 4.57
7:15 am 07:15 Cloudy 43 6.2 42 5.5 95 95 E 18 30 29.82 1010 7 11 0.03 0.76
7:35 am 07:35 Cloudy 43 6.2 42 5.5 95 95 E 20 31 29.79 1009 7 11 0.05 1.27
7:55 am 07:55 Cloudy with Light Rain 43 6.2 42 5.5 95 95 E 17 28 29.78 1009 10 16 0.05 1.27
8:15 am 08:15 Cloudy with Drizzle 44 6.5 42 5.5 93 93 E 15 24 29.75 1008 10 16 0.00 0.00
8:35 am 08:35 Cloudy with Thunderstorms 44 6.5 42 5.5 93 93 E 17 28 29.74 1007 10 16 0.00 0.00
8:55 am 08:55 Cloudy with Strong Thunderstorms 44 6.6 42 5.5 93 93 E 16 26 29.80 1009 2 3 0.11 2.79
9:15 am 09:15 Cloudy with Thunderstorms 44 6.4 42 5.6 95 95 ENE 13 20 29.78 1009 2 3 0.09 2.29
9:35 am 09:35 Cloudy with Light Rain 43 6.2 42 5.6 96 96 ENE 14 22 29.73 1007 2 3 0.17 4.32
9:55 am 09:55 Cloudy with Light Rain 43 6.2 42 5.6 96 96 E 17 28 29.73 1007 7 11 0.19 4.83
10:15 am 10:15 Cloudy with Light Rain 43 6.2 42 5.5 95 95 E 22 35 29.72 1007 4 6 0.01 0.25
10:35 am 10:35 Cloudy with Light Rain 43 6.2 42 5.5 95 95 E 16 26 29.71 1006 3 4 0.03 0.76
10:55 am 10:55 Cloudy with Light Rain 43 6.2 42 5.5 95 95 E 18 30 29.69 1006 3 4 0.04 1.02
11:15 am 11:15 Cloudy with Light Rain 43 6.2 42 5.6 96 96 E 16 26 29.64 1004 5 8 0.01 0.25
11:35 am 11:35 Cloudy with Light Rain 43 6.2 42 5.5 95 95 E 15 24 29.68 1005 10 16 0.01 0.25
11:55 am 11:55 Cloudy with Light Rain 43 6.2 42 5.5 95 95 E 17 28 29.67 1005 2 3 0.01 0.25
12:15 pm 12:15 Cloudy with Rain 43 6.2 42 5.7 97 97 ENE 14 22 29.66 1005 2 3 0.01 0.25
12:35 pm 12:35 Cloudy with Rain 43 6.2 42 5.7 97 97 NE 15 24 29.67 1005 3 5 0.07 1.78
12:55 pm 12:55 Cloudy with Light Rain 43 6.1 42 5.6 97 97 NNE 16 26 29.68 1005 3 5 0.13 3.30
1:15 pm 13:15 Cloudy with Drizzle 43 6.1 42 5.5 96 96 NE 17 28 29.68 1005 5 8 0.01 0.25
1:35 pm 13:35 Cloudy with Rain 43 6.1 42 5.4 95 95 NE 17 28 29.70 1006 5 8 0.02 0.51
1:55 pm 13:55 Cloudy with Drizzle 43 6 41 5.1 94 94 NE 17 28 29.74 1007 4 6 0.02 0.51
2:15 pm 14:15 Cloudy with Light Rain 42 5.7 41 5 95 95 NNE 21 33 29.74 1007 2 3 0.02 0.51
2:35 pm 14:35 Cloudy with Light Rain 43 6 41 5.2 95 95 NNE 20 31 29.77 1008 3 5 0.03 0.76
2:55 pm 14:55 Cloudy with Light Rain 42 5.4 40 4.5 94 94 N 20 31 29.79 1009 4 6 0.03 0.76
3:15 pm 15:15 Cloudy with Light Rain 41 5 39 4.1 94 94 NNE 25 41 29.77 1008 3 4 0.00 0.00
3:35 pm 15:35 Cloudy 42 5.5 41 4.8 95 95 NNE 16 26 29.77 1008 7 11 0.00 0.00
3:55 pm 15:55 Cloudy 42 5.5 40 4.3 92 92 N 14 22 29.85 1011 10 16 0.00 0.00
4:55 pm 16:55 Cloudy 42 5.6 40 4.3 91 91 NNE 16 26 29.86 1011 10 16 0.00 0.00
5:35 pm 17:35 Cloudy 42 5.7 39 4.1 90 90 N 17 28 29.90 1012 10 16 0.00 0.00
5:55 pm 17:55 Cloudy 42 5.6 39 3.8 88 88 N 16 26 29.92 1013 10 16 0.00 0.00
6:15 pm 18:15 Cloudy 42 5.4 39 3.7 89 89 N 17 28 29.93 1013 10 16 0.00 0.00
6:35 pm 18:35 Cloudy with Light Rain 42 5.3 38 3.5 88 88 NNE 14 22 29.96 1014 10 16 0.00 0.00
6:55 pm 18:55 Cloudy 42 5.6 38 3.4 86 86 NNE 17 28 29.97 1015 10 16 0.00 0.00
7:15 pm 19:15 Cloudy 43 6.1 39 3.8 85 85 NNE 13 20 29.99 1016 10 16 0.00 0.00
7:35 pm 19:35 Cloudy 43 6.1 39 3.7 85 85 NNE 16 26 29.98 1015 10 16 0.00 0.00
7:55 pm 19:55 Cloudy 43 6.3 39 3.8 84 84 NNE 14 22 29.98 1015 10 16 0.00 0.00
8:15 pm 20:15 Cloudy 43 6.3 39 3.7 84 84 NE 12 19 29.98 1015 10 16 0.00 0.00
8:35 pm 20:35 Mostly Cloudy 43 6.1 38 3.5 84 84 NNE 9 15 30.00 1016 10 16 0.00 0.00
8:55 pm 20:55 Partly Cloudy 42 5.7 38 3.3 85 85 NNE 9 15 30.02 1016 10 16 0.00 0.00
9:15 pm 21:15 Clear 42 5.5 38 3.3 86 86 NE 5 7 30.03 1017 10 16 0.00 0.00
9:35 pm 21:35 Clear 41 5.2 38 3.4 88 88 NNE 3 6 30.06 1018 10 16 0.00 0.00
9:55 pm 21:55 Clear 40 4.6 38 3.2 91 91 Calm 30.07 1018 10 16 0.00 0.00
10:15 pm 22:15 Clear 39 4.1 37 2.7 91 91 N 3 6 30.08 1019 10 16 0.00 0.00
10:35 pm 22:35 Partly Cloudy 38 3.6 38 3.1 97 97 Calm 30.07 1018 10 16 0.00 0.00
10:55 pm 22:55 Mostly Cloudy 38 3.6 38 3.1 97 97 N 3 6 30.07 1018 10 16 0.00 0.00
11:15 pm 23:15 Mostly Cloudy 39 3.7 38 3.1 96 96 N 5 7 30.08 1019 10 16 0.00 0.00
11:35 pm 23:35 Cloudy 40 4.2 38 3.1 93 93 N 3 6 30.07 1018 10 16 0.00 0.00
11:55 pm 23:55 Mostly Cloudy 38 3.3 36 2.4 94 94 Calm 30.08 1018 10 16 0.00 0.00

Powered by AerisWeather